Regional Weather Roundup
Issued by NWS Northern Indiana

Home | Current Version | Previous Version | Text Only | Print | Product List | Glossary On
Versions: 1 2 3 4 5 6 7 8 9 10 11 12 13 14 15 16 17 18 19 20 21 22 23 24 25 26 27 28 29 30 31 32 33 34 35 36 37 38 39 40 41 42 43 44 45 46 47 48 49 50
000
ASUS43 KIWX 180400
RWRIWX

KIWX WEATHER ROUNDUP
NATIONAL WEATHER SERVICE NORTHERN INDIANA
1100 PM EST TUE JAN 17 2017

NOTE: "FAIR" INDICATES FEW OR NO CLOUDS BELOW 12,000 FEET WITH NO
SIGNIFICANT WEATHER AND/OR OBSTRUCTIONS TO VISIBILITY.

* THESE STATIONS ARE NOT UNDER NWS QUALITY CONTROL. THEY ALSO MAY NOT
  REPORT WEATHER SUCH AS PRECIPITATION OR FOG.

INZ001>027-180500-
NORTHERN INDIANA

CITY           SKY/WX    TMP DP  RH WIND       PRES   REMARKS
GARY*          CLOUDY    37  36  93 W12G23    30.02R FOG
SOUTH BEND     CLOUDY    35  34  96 W10       29.98S FOG     WCI  27
GOSHEN         CLOUDY    36  33  89 W14       29.97S FOG
FORT WAYNE     CLOUDY    38  35  89 W18       29.99R
PERU/GRISSOM   DRIZZLE   36  36 100 W14       30.01R

$$
INZ028>050-180500-
CENTRAL INDIANA

CITY           SKY/WX    TMP DP  RH WIND       PRES   REMARKS
LAFAYETTE      MIX PCPN  35  35 100 W12       30.06R WCI  27
KOKOMO*        MIX PCPN  37  36  96 W17       30.03S FOG
MUNCIE*        CLOUDY    41  37  86 W14G29    30.01S
INDIANAPOLIS   CLOUDY    39  37  92 W16       30.06R

$$
MIZ043>046-050>051-056>058-064>065-071>073-077>080-180500-
SOUTHWEST LOWER MICHIGAN

CITY           SKY/WX    TMP DP  RH WIND       PRES   REMARKS
BATTLE CREEK   CLOUDY    37  37 100 W12       29.92F
BENTON HARBOR  CLOUDY    37  35  92 W15       29.97R FOG
COLDWATER*     LGT SNOW  37  37 100 W10       29.93S
HILLSDALE*     LGT RAIN  36  36 100 W13       29.91S
HOLLAND        CLOUDY    36  35  96 W9        29.93S FOG
GRAND RAPIDS   DRIZZLE   36  35  96 W12       29.91R FOG
KALAMAZOO      LGT RAIN  37  34  89 SW8       29.94S
STURGIS*       CLOUDY    35  35  97 W10       29.94S FOG     WCI  28
THREE RIVERS*  CLOUDY    36  35  96 W7        29.95S FOG

$$
OHZ001>008-015>018-024>025-180500-
NORTHWEST OHIO

CITY           SKY/WX    TMP DP  RH WIND       PRES   REMARKS
DEFIANCE       CLOUDY    40  36  86 W8        29.96S
FINDLAY        CLOUDY    43  39  86 W18       29.95R
TOLEDO EXPRESS CLOUDY    39  39 100 W14       29.93S
TOLEDO METCALF CLOUDY    41  40  96 W14       29.94R
LIMA           LGT RAIN  42  41  96 W20G28    29.97R

$$
AND FOR LAKE MICHIGAN COASTAL AND OPEN LAKE BUOY OBSERVATIONS

STATION/POSITION TEMP    WIND        PRES    VSBY  WAVE
                 AIR SEA DIR/SP/G                  HT/PER
                 (F)     (DEG/KT/KT) (MB)    (MI)  (FT/S)
CALUMET HARBOR    36     240/  8/ 13 1015.4R
BURNS HARBOR      35     250/ 12/ 16 1016.6R

$$
&&




USA.gov is the U.S. government's official web portal to all federal, state and local government web resources and services.